TimePDT,TemperatureF,Dew PointF,Humidity,Sea Level PressureIn,VisibilityMPH,Wind Direction,Wind SpeedMPH,Gust SpeedMPH,PrecipitationIn,Events,Conditions,WindDirDegrees,DateUTC
12:51 AM,51.8,48.2,88,30.12,8.0,South,8.1,-,N/A,,Mostly Cloudy,170,2012-03-29 07:51:00
12:54 AM,52.0,48.9,89,30.09,8.0,SSE,8.1,-,N/A,,Overcast,160,2012-03-29 07:54:00
1:54 AM,51.1,48.9,92,30.11,10.0,SSE,3.5,-,N/A,,Overcast,160,2012-03-29 08:54:00
2:54 AM,50.0,48.0,93,30.09,10.0,SSE,3.5,-,N/A,,Overcast,160,2012-03-29 09:54:00
3:09 AM,50.0,48.2,94,30.11,10.0,Calm,Calm,-,N/A,,Overcast,0,2012-03-29 10:09:00
3:36 AM,51.8,48.2,88,30.12,10.0,Calm,Calm,-,N/A,,Overcast,0,2012-03-29 10:36:00
3:54 AM,51.1,46.9,86,30.09,9.0,Calm,Calm,-,N/A,,Overcast,0,2012-03-29 10:54:00
4:22 AM,50.0,46.4,87,30.12,9.0,Calm,Calm,-,N/A,,Overcast,0,2012-03-29 11:22:00
4:52 AM,51.8,48.2,88,30.12,10.0,Calm,Calm,-,N/A,,Overcast,0,2012-03-29 11:52:00
4:54 AM,51.1,48.0,89,30.10,10.0,Calm,Calm,-,N/A,,Overcast,0,2012-03-29 11:54:00
5:04 AM,51.8,48.2,88,30.12,9.0,Calm,Calm,-,N/A,,Overcast,0,2012-03-29 12:04:00
5:36 AM,51.8,48.2,88,30.13,10.0,Calm,Calm,-,N/A,,Overcast,0,2012-03-29 12:36:00
5:54 AM,51.1,48.0,89,30.12,10.0,Calm,Calm,-,N/A,,Overcast,0,2012-03-29 12:54:00
6:02 AM,51.8,48.2,88,30.14,10.0,Calm,Calm,-,N/A,,Overcast,0,2012-03-29 13:02:00
6:54 AM,48.9,46.9,93,30.09,8.0,SSE,4.6,-,N/A,,Scattered Clouds,150,2012-03-29 13:54:00
7:38 AM,51.8,48.2,88,30.12,9.0,Calm,Calm,-,N/A,,Mostly Cloudy,0,2012-03-29 14:38:00
7:54 AM,51.1,48.0,89,30.10,9.0,Calm,Calm,-,N/A,,Mostly Cloudy,0,2012-03-29 14:54:00
8:06 AM,51.8,48.2,88,30.12,9.0,East,3.5,-,N/A,,Mostly Cloudy,100,2012-03-29 15:06:00
8:54 AM,53.1,48.9,86,30.11,9.0,NNW,3.5,-,N/A,,Overcast,330,2012-03-29 15:54:00
9:54 AM,54.0,48.9,83,30.12,9.0,Calm,Calm,-,N/A,,Overcast,0,2012-03-29 16:54:00
10:54 AM,55.9,48.9,77,30.10,10.0,Calm,Calm,-,N/A,,Overcast,0,2012-03-29 17:54:00
11:54 AM,59.0,51.1,75,30.09,10.0,SW,8.1,-,N/A,,Mostly Cloudy,220,2012-03-29 18:54:00
12:54 PM,60.1,50.0,69,30.09,10.0,WSW,10.4,-,N/A,,Overcast,250,2012-03-29 19:54:00
1:54 PM,59.0,51.1,75,30.07,10.0,SSW,8.1,-,N/A,,Overcast,210,2012-03-29 20:54:00
2:54 PM,59.0,51.1,75,30.06,10.0,SW,13.8,-,N/A,,Clear,220,2012-03-29 21:54:00
3:54 PM,57.0,51.1,81,30.06,10.0,SSW,11.5,-,N/A,,Overcast,200,2012-03-29 22:54:00
4:54 PM,57.9,51.1,78,30.06,10.0,South,12.7,-,N/A,,Clear,190,2012-03-29 23:54:00
5:54 PM,55.9,51.1,84,30.05,10.0,South,10.4,-,N/A,,Overcast,190,2012-03-30 00:54:00
6:54 PM,55.0,51.1,86,30.05,10.0,SSW,10.4,-,N/A,,Mostly Cloudy,200,2012-03-30 01:54:00
7:54 PM,54.0,50.0,86,30.06,10.0,South,8.1,-,N/A,,Overcast,190,2012-03-30 02:54:00
8:54 PM,54.0,51.1,90,30.06,10.0,South,9.2,-,N/A,,Mostly Cloudy,190,2012-03-30 03:54:00
9:54 PM,54.0,51.1,90,30.08,10.0,SSW,9.2,-,N/A,,Overcast,210,2012-03-30 04:54:00
10:54 PM,54.0,51.1,90,30.08,10.0,SSW,10.4,-,N/A,,Overcast,210,2012-03-30 05:54:00
11:54 PM,54.0,51.1,90,30.09,10.0,SSW,9.2,-,N/A,,Overcast,210,2012-03-30 06:54:00